Regional Weather Roundup
Issued by NWS

Home | Current Version | Previous Version | Graphics & Text | Print | Product List | Glossary On
Versions: 1 2 3 4 5 6 7 8 9 10 11 12 13 14 15 16 17 18 19 20 21 22 23 24 25 26 27 28 29 30 31 32 33 34 35 36 37 38 39 40 41 42 43 44 45 46 47 48 49 50
000
ASUS45 KSLC 120710
RWRUT

UTAH REGIONAL WEATHER ROUNDUP
NATIONAL WEATHER SERVICE SALT LAKE CITY UT
1200 AM MST TUE DEC 12 2017

UTZ001>011-023>025-120800-

NORTHERN UTAH

CITY           SKY/WX    TMP DP  RH WIND       PRES   REMARKS
BRIGHAM CITY   CLOUDY    27  25  91 CALM      30.62R
HILL AFB       PTCLDY    21  19  93 CALM      30.58S FOG
LOGAN          HAZE      18  12  77 N3        30.61R VSB 1/4
OGDEN          CLOUDY    23  22  96 CALM      30.59S FOG
SALT LAKE CITY SNOW      25  24  96 E3        30.60F VSB 1/4
TOOELE VALLEY  FOG       23  23 100 CALM      30.60F VSB 1/4
WENDOVER       PTCLDY    16  12  84 NE5       30.62R WCI   9
HEBER CITY       N/A     18  10  73 CALM      30.55S
WEST JORDAN    CLOUDY   N/A N/A N/A CALM      30.59F VSB<1/4

$$

UTZ011>015-024>027-120800-

CENTRAL/NORTHEAST UTAH

CITY           SKY/WX    TMP DP  RH WIND       PRES   REMARKS
PROVO AIRPORT  PTCLDY    20  18  92 CALM      30.60S
MOAB/CANYONLAN MOCLDY    22   2  42 W3        30.50S
DELTA          MOCLDY    18  10  73 SW3       30.58S
PRICE          PTCLDY    25   2  37 CALM      30.49R
ROOSEVELT      CLOUDY    19   9  63 W5        30.58S WCI  13
VERNAL         CLOUDY    18   7  62 W5        30.56R WCI  11

$$

UTZ013>016-019>022-027-120800-

SOUTHERN UTAH

CITY           SKY/WX    TMP DP  RH WIND       PRES   REMARKS
BRYCE CANYON   PTCLDY    18 -11  27 W13       30.55S WCI   5
CEDAR CITY     PTCLDY    20   4  50 CALM      30.52S
MILFORD        MOCLDY    19   9  65 CALM      30.56R
ST GEORGE      SUNNY     37   0  21 S3        30.46R
HANKSVILLE     MOCLDY    18  -2  41 NW3       30.54S
BLANDING         N/A     33   2  26 CALM      30.52S

$$

REGIONAL REPORTS     COLORADO/ARIZONA

CITY           SKY/WX    TMP DP  RH WIND       PRES   REMARKS
CRAIG, CO      CLOUDY     9   5  84 NW3       30.54S
GRAND JUNCTION CLOUDY    27   2  34 E6        30.52R WCI  20
RIFLE, CO      CLOUDY    23   5  46 CALM      30.54R
MONTROSE, CO   CLOUDY    21   2  43 SE8       30.55R WCI  11
CORTEZ, CO     CLOUDY    15   1  53 NE10      30.48R WCI   2
COLORADO CITY    N/A     14 -13  29 CALM      30.49S
PAGE, AZ       PTCLDY    32  14  47 CALM      30.48R
GRAND CANYON   PTCLDY    18 -16  21 CALM      30.49S
KINGMAN, AZ    PTCLDY    37  -2  19 E6        30.37R WCI  32
FLAGSTAFF, AZ  PTCLDY    19 -10  27 CALM      30.46F

$$

REGIONAL REPORTS    NEVADA/IDAHO/WYOMING

CITY           SKY/WX    TMP DP  RH WIND       PRES   REMARKS
LAS VEGAS, NV  CLEAR     44  -1  15 SW3       30.36R
ELY, NY        PTCLDY    14  -8  37 S10       30.57R WCI   1
ELKO, NV       MOCLDY    16  13  88 NE3       30.56S
POCATELLO, ID  CLOUDY    15  12  88 CALM      30.59R
BURLEY, ID     FOG       21  18  88 CALM      30.58S VSB 1/4
FORT BRIDGER,    N/A     37   9  31 W7        30.55S WCI  31
EVANSTON, WY   CLOUDY    34  10  37 CALM      30.55S
ROCK SPRINGS,  CLOUDY    27  12  53 SW3       30.51R

$$



USA.gov is the U.S. government's official web portal to all federal, state and local government web resources and services.